Location: State Camp
(41.2367°N, 77.7828°W)
Time: 18:01:49
(UTC-04:00)

ADEOS Rocket - Visible Passes

Search period start: 31 October 2014 00:00
Search period end: 09 November 2014 23:00
Orbit: 859 x 1307 km, 98.7° (Epoch: 31 October)

Date Brightness Start Highest point End Pass type
(mag) Time Alt. Az. Time Alt. Az. Time Alt. Az.
31 Oct 4.5 20:52:00 33° NNE 20:52:00 33° NNE 20:56:20 10° N visible
31 Oct 5.4 22:38:59 23° NW 22:38:59 23° NW 22:41:49 10° NNW visible
01 Nov 4.8 20:02:40 21° NE 20:02:40 21° NE 20:06:31 10° NNE visible
01 Nov 4.8 21:49:38 33° NNW 21:49:38 33° NNW 21:53:21 10° NNW visible
02 Nov 5.2 18:13:19 10° NE 18:13:19 10° NE 18:13:44 10° NE visible
02 Nov 4.5 20:00:17 32° NNE 20:00:17 32° NNE 20:04:17 10° N visible
02 Nov 5.5 21:47:16 20° NW 21:47:16 20° NW 21:49:31 10° NNW visible
03 Nov 4.8 19:10:57 22° NE 19:10:57 22° NE 19:14:36 10° N visible
03 Nov 4.9 20:57:55 29° NNW 20:57:55 29° NNW 21:01:11 10° NNW visible
04 Nov 5.2 18:21:36 12° NE 18:21:36 12° NE 18:23:18 10° NNE visible
04 Nov 4.6 20:08:34 31° N 20:08:34 31° N 20:12:12 10° N visible
04 Nov 5.7 21:55:33 16° NW 21:55:33 16° NW 21:57:10 10° NNW visible
05 Nov 4.8 19:19:14 23° NNE 19:19:14 23° NNE 19:22:38 10° N visible
05 Nov 5.1 21:06:12 25° NNW 21:06:12 25° NNW 21:08:59 10° NNW visible
06 Nov 5.1 18:29:53 13° NE 18:29:53 13° NE 18:31:52 10° NNE visible
06 Nov 4.8 20:16:51 29° N 20:16:51 29° N 20:20:06 10° N visible
06 Nov 5.9 22:03:50 13° NW 22:03:50 13° NW 22:04:46 10° NW visible
07 Nov 4.8 19:27:31 23° NNE 19:27:31 23° NNE 19:30:39 10° N visible
07 Nov 5.3 21:14:29 22° NNW 21:14:29 22° NNW 21:16:46 10° NNW visible
08 Nov 5.1 18:38:10 14° NE 18:38:10 14° NE 18:40:12 10° NNE visible
08 Nov 4.9 20:25:08 26° N 20:25:08 26° N 20:27:58 10° N visible
08 Nov 6.0 22:12:07 11° NW 22:12:07 11° NW 22:12:18 10° NW visible
09 Nov 4.8 19:35:47 23° NNE 19:35:47 23° NNE 19:38:37 10° N visible
09 Nov 5.5 21:22:46 18° NNW 21:22:46 18° NNW 21:24:30 10° NNW visible
